Location: *
(28.3744°N, 81.5492°W)
Time: 03:06:28
(UTC+00:00)

SPOT 5 - Pass Details

Date: 15 June 2025
Orbit: 620 x 803 km, 98.0° (Epoch: 11 July)

Event Time Altitude Azimuth Distance (km) Brightness Sun altitude
Exits shadow 00:51:23 - 117° (ESE) 2,270 4.8 -6.0°
Reaches altitude 10° 00:52:14 10° 109° (ESE) 2,039 4.6 -6.1°
Maximum altitude 00:55:05 17° 69° (ENE) 1,651 4.4 -6.7°
Drops below altitude 10° 00:58:00 10° 29° (NNE) 2,106 5.3 -7.2°
Sets 01:00:58 0° 10° (N) 3,062 6.4 -7.8°
